Hourly Weather Kozlowki

Today, 31 October, Saturday

Time Temperature Precipitation Wind Pressure Humidity
00:00 +10°C° 0.1 mm 1 mps 747 mmHg 94%
01:00 +9°C° 0 mm 2 mps 748 mmHg 94%
02:00 +8°C° 0 mm 2 mps 748 mmHg 93%
03:00 +8°C° 0 mm 2 mps 748 mmHg 93%
04:00 +8°C° 0 mm 2 mps 749 mmHg 92%
05:00 +7°C° 0 mm 2 mps 749 mmHg 92%
06:00 +7°C° 0 mm 2 mps 750 mmHg 92%
07:00 +6°C° 0 mm 2 mps 751 mmHg 89%
08:00 +8°C° 0 mm 1 mps 751 mmHg 83%
09:00 +9°C° 0 mm 1 mps 751 mmHg 76%
10:00 +11°C° 0 mm 1 mps 752 mmHg 70%
11:00 +11°C° 0 mm 1 mps 752 mmHg 65%
12:00 +12°C° 0 mm 1 mps 752 mmHg 61%
13:00 +12°C° 0 mm 1 mps 752 mmHg 57%
14:00 +12°C° 0 mm 1 mps 752 mmHg 60%
15:00 +11°C° 0 mm 1 mps 752 mmHg 63%
16:00 +11°C° 0 mm 1 mps 752 mmHg 65%
17:00 +10°C° 0 mm 1 mps 752 mmHg 68%
18:00 +9°C° 0 mm 1 mps 752 mmHg 71%
19:00 +8°C° 0 mm 2 mps 752 mmHg 73%
20:00 +7°C° 0 mm 2 mps 752 mmHg 75%
21:00 +7°C° 0 mm 2 mps 752 mmHg 78%
22:00 +7°C° 0 mm 2 mps 752 mmHg 80%
23:00 +5°C° 0 mm 3 mps 752 mmHg 80%

Tomorrow, 1 November, Sunday

Time Temperature Precipitation Wind Pressure Humidity
00:00 +5°C° 0 mm 3 mps 752 mmHg 81%
01:00 +5°C° 0 mm 3 mps 752 mmHg 82%
02:00 +5°C° 0 mm 3 mps 751 mmHg 82%
03:00 +4°C° 0 mm 3 mps 751 mmHg 82%
04:00 +4°C° 0 mm 3 mps 751 mmHg 81%
05:00 +4°C° 0 mm 3 mps 750 mmHg 81%
06:00 +4°C° 0 mm 4 mps 750 mmHg 80%
07:00 +4°C° 0 mm 4 mps 750 mmHg 80%
08:00 +6°C° 0 mm 4 mps 750 mmHg 77%
09:00 +7°C° 0 mm 4 mps 750 mmHg 75%
10:00 +10°C° 0 mm 4 mps 749 mmHg 72%
11:00 +11°C° 0 mm 4 mps 749 mmHg 72%
12:00 +12°C° 0 mm 4 mps 748 mmHg 72%
13:00 +13°C° 0 mm 4 mps 748 mmHg 72%
14:00 +13°C° 0 mm 3 mps 748 mmHg 76%
15:00 +12°C° 0 mm 3 mps 747 mmHg 79%
16:00 +11°C° 0 mm 3 mps 747 mmHg 83%
17:00 +11°C° 0.3 mm 3 mps 747 mmHg 86%
18:00 +11°C° 0.3 mm 3 mps 747 mmHg 89%
19:00 +11°C° 0.3 mm 4 mps 747 mmHg 91%
20:00 +11°C° 0.7 mm 4 mps 747 mmHg 92%
21:00 +11°C° 0.7 mm 4 mps 747 mmHg 93%
22:00 +11°C° 0.7 mm 4 mps 746 mmHg 94%
23:00 +11°C° 0.1 mm 4 mps 746 mmHg 93%

Day after tomorrow, 2 November, Monday

Time Temperature Precipitation Wind Pressure Humidity
00:00 +11°C° 0.1 mm 4 mps 746 mmHg 93%
01:00 +11°C° 0.1 mm 4 mps 746 mmHg 92%
02:00 +11°C° 0.1 mm 4 mps 746 mmHg 92%
03:00 +11°C° 0.1 mm 4 mps 746 mmHg 92%
04:00 +11°C° 0.1 mm 4 mps 745 mmHg 93%
05:00 +11°C° 0.1 mm 4 mps 745 mmHg 93%
06:00 +11°C° 0.1 mm 4 mps 746 mmHg 93%
07:00 +12°C° 0.1 mm 4 mps 746 mmHg 94%
08:00 +12°C° 0.1 mm 4 mps 746 mmHg 94%
09:00 +12°C° 0.1 mm 4 mps 746 mmHg 94%
10:00 +12°C° 0.1 mm 4 mps 746 mmHg 94%
11:00 +13°C° 0.1 mm 4 mps 746 mmHg 94%
12:00 +13°C° 0.1 mm 4 mps 746 mmHg 94%
13:00 +13°C° 0.1 mm 4 mps 746 mmHg 94%
14:00 +13°C° 0 mm 4 mps 746 mmHg 94%
15:00 +13°C° 0 mm 4 mps 746 mmHg 93%
16:00 +13°C° 0 mm 4 mps 746 mmHg 93%
17:00 +13°C° 0 mm 4 mps 746 mmHg 94%
18:00 +13°C° 0 mm 4 mps 746 mmHg 94%
19:00 +13°C° 0 mm 4 mps 747 mmHg 94%
20:00 +13°C° 0 mm 4 mps 747 mmHg 94%
21:00 +13°C° 0 mm 4 mps 747 mmHg 93%
22:00 +14°C° 0 mm 4 mps 747 mmHg 92%
23:00 +14°C° 0 mm 4 mps 747 mmHg 92%

3 November, Tuesday

Time Temperature Precipitation Wind Pressure Humidity
00:00 +14°C° 0 mm 4 mps 747 mmHg 92%
01:00 +13°C° 0 mm 4 mps 747 mmHg 92%
02:00 +13°C° 0 mm 4 mps 748 mmHg 92%
03:00 +13°C° 0 mm 4 mps 748 mmHg 91%
04:00 +13°C° 0 mm 4 mps 748 mmHg 90%
05:00 +13°C° 0 mm 4 mps 748 mmHg 90%
06:00 +13°C° 0 mm 3 mps 748 mmHg 90%
07:00 +13°C° 0 mm 3 mps 749 mmHg 91%
08:00 +14°C° 0.1 mm 4 mps 749 mmHg 90%
09:00 +14°C° 0.1 mm 4 mps 750 mmHg 89%
10:00 +15°C° 0.1 mm 4 mps 750 mmHg 88%
11:00 +14°C° 0.2 mm 4 mps 751 mmHg 83%
12:00 +14°C° 0.2 mm 4 mps 751 mmHg 78%
13:00 +13°C° 0.2 mm 4 mps 752 mmHg 73%
14:00 +13°C° 0 mm 3 mps 752 mmHg 72%
15:00 +12°C° 0 mm 3 mps 752 mmHg 71%
16:00 +12°C° 0 mm 3 mps 752 mmHg 70%
17:00 +13°C° 0 mm 2 mps 753 mmHg 71%
18:00 +12°C° 0 mm 2 mps 753 mmHg 72%
19:00 +12°C° 0 mm 2 mps 754 mmHg 73%
20:00 +10°C° 0 mm 2 mps 754 mmHg 75%
21:00 +10°C° 0 mm 2 mps 755 mmHg 76%
22:00 +10°C° 0 mm 2 mps 755 mmHg 78%
23:00 +9°C° 0 mm 2 mps 755 mmHg 77%

4 November, Wednesday

Time Temperature Precipitation Wind Pressure Humidity
00:00 +9°C° 0 mm 2 mps 755 mmHg 76%
01:00 +10°C° 0 mm 1 mps 755 mmHg 76%
02:00 +10°C° 0 mm 1 mps 755 mmHg 76%
03:00 +10°C° 0 mm 1 mps 755 mmHg 75%
04:00 +9°C° 0 mm 0 mps 756 mmHg 75%
05:00 +8°C° 0 mm 0 mps 756 mmHg 76%
06:00 +8°C° 0 mm 0 mps 756 mmHg 77%
07:00 +8°C° 0 mm 0 mps 756 mmHg 77%
08:00 +10°C° 0 mm 1 mps 756 mmHg 74%
09:00 +11°C° 0 mm 1 mps 756 mmHg 70%
10:00 +11°C° 0 mm 1 mps 756 mmHg 66%
11:00 +12°C° 0 mm 1 mps 756 mmHg 63%
12:00 +12°C° 0 mm 1 mps 756 mmHg 60%
13:00 +13°C° 0 mm 1 mps 756 mmHg 57%
14:00 +12°C° 0 mm 1 mps 756 mmHg 60%
15:00 +12°C° 0 mm 1 mps 756 mmHg 63%
16:00 +11°C° 0 mm 1 mps 756 mmHg 65%
17:00 +11°C° 0 mm 1 mps 756 mmHg 68%
18:00 +11°C° 0 mm 1 mps 756 mmHg 72%
19:00 +9°C° 0 mm 2 mps 757 mmHg 75%
20:00 +9°C° 0.1 mm 2 mps 757 mmHg 78%
21:00 +9°C° 0.1 mm 2 mps 757 mmHg 81%
22:00 +10°C° 0.1 mm 1 mps 757 mmHg 84%
23:00 +10°C° 0.3 mm 1 mps 757 mmHg 86%

5 November, Thursday

Time Temperature Precipitation Wind Pressure Humidity
00:00 +9°C° 0.3 mm 1 mps 757 mmHg 87%
01:00 +9°C° 0.3 mm 1 mps 757 mmHg 89%
02:00 +9°C° 0 mm 1 mps 757 mmHg 88%
03:00 +9°C° 0 mm 1 mps 757 mmHg 88%
04:00 +9°C° 0 mm 1 mps 757 mmHg 87%
05:00 +9°C° 0 mm 1 mps 758 mmHg 84%
06:00 +8°C° 0 mm 2 mps 758 mmHg 82%
07:00 +8°C° 0 mm 2 mps 758 mmHg 79%
08:00 +8°C° 0 mm 3 mps 758 mmHg 76%
09:00 +8°C° 0 mm 3 mps 759 mmHg 72%
10:00 +8°C° 0 mm 3 mps 759 mmHg 69%
11:00 +9°C° 0 mm 3 mps 759 mmHg 67%
12:00 +8°C° 0 mm 4 mps 759 mmHg 64%
13:00 +8°C° 0 mm 4 mps 759 mmHg 62%
14:00 +9°C° 0 mm 3 mps 759 mmHg 65%
15:00 +8°C° 0 mm 3 mps 759 mmHg 68%
16:00 +8°C° 0 mm 3 mps 760 mmHg 72%
17:00 +7°C° 0 mm 2 mps 760 mmHg 74%
18:00 +6°C° 0 mm 2 mps 760 mmHg 77%
19:00 +6°C° 0 mm 2 mps 761 mmHg 80%
20:00 +5°C° 0 mm 2 mps 761 mmHg 82%
21:00 +5°C° 0 mm 2 mps 761 mmHg 83%
22:00 +5°C° 0 mm 2 mps 761 mmHg 85%
23:00 +4°C° 0 mm 2 mps 761 mmHg 88%
Show more